{"data":{"norad_id":56517,"intl_designator":"2023-065Q","name":"STARLINK-5345","alt_names":[],"object_type":"PAYLOAD","status":"ACTIVE","operator":null,"country":"US","launch_date":"2023-05-14","launch_site_code":"AFETR","launch_vehicle":null,"mission":null,"orbit_class":"UNKNOWN","rcs_meters":null,"size_class":null,"mass_kg":null,"dimensions":null,"purposes":["comms"],"wikipedia_slug":null,"has_3d_model":false,"image_url":null,"decayed_at":null,"tle_current":{"epoch":"2026-05-25T00:41:30.797952Z","epoch_age_seconds":69238,"freshness":"FRESH","line1":"1 56517U 23065Q   26145.02882868 -.00000053  00000+0  75982-5 0  9994","line2":"2 56517  43.0011 141.4465 0001050 269.0917  90.9814 15.27574961168272","mean_motion":15.27574961,"eccentricity":0.000105,"inclination_deg":43.0011,"raan_deg":141.4465,"arg_perigee_deg":269.0917,"mean_anomaly_deg":90.9814,"bstar":7.5982e-6,"rev_number":16827,"period_min":94.267059670665,"perigee_km":482.34375853551,"apogee_km":483.78461078429,"semimajor_km":6861.2011846599,"source":"CELESTRAK","updated_at":"2026-05-25T13:38:18.107787Z"}}}